Volver al catálogo

BREEZE-M DEB

TANK

ActivoHEO
NORAD 39129·DEBRIS·🇷🇺 Russia

Lanzado Apr 15, 2013 desde Baikonur Cosmodrome

Loading…

Próximos Pases (próximas 24 horas)

TLE

ActualizadoSource: Space-Track

Época: Sep 14, 2026, 08:34 UTC

1 39129U 13014C   26257.35733207  .00001176  00000-0  44562-3 0  9994
2 39129  49.4309  35.3898 5838053  81.9391 336.9127  4.25187539193530

Sigue BREEZE-M DEB en tiempo real con AllMySat

Download on the App Store